Preview of NWS' New Version of Forecast
This preview is not operational and should not be used for support decisions.

Regional Weather Roundup (RWR)

Issued by National Weather Service (NWS)

                            
000
ASUS45 KCYS 212010
RWRWY 

WYOMING REGIONAL WEATHER ROUNDUP
NATIONAL WEATHER SERVICE CHEYENNE WY
200 PM MDT SUN APR 21 2019

NOTE:  "FAIR" INDICATES FEW OR NO CLOUDS BELOW 12,000 FEET
WITH NO SIGNIFICANT WEATHER AND/OR OBSTRUCTIONS TO VISIBILITY.

WYZ001-212100-
YELLOWSTONE NATIONAL PARK
  
CITY           SKY/WX    TMP DP  RH WIND       PRES   REMARKS
LK YELLOWSTONE   N/A     40  31  70 MISG      30.04R                  
W YELLOWSTONE  NOT AVBL                                               

$$
WYZ002>013-054>058-071-098>099-212100-
NORTHERN WYOMING
  
CITY           SKY/WX    TMP DP  RH WIND       PRES   REMARKS
JACKSON        CLOUDY    45  38  76 SW3       29.96R                  
CODY           LGT RAIN  41  35  79 N20G25    30.10R                  
GREYBULL       CLOUDY    48  38  68 NW23G32   29.98R                  
WORLAND        LGT RAIN  46  40  79 NW16      30.02R                  
SHERIDAN       CLOUDY    45  41  86 N12       30.11R                  
BUFFALO        CLOUDY    42  40  92 N22G30    30.07R                  
GILLETTE       CLOUDY    44  43  96 N18       30.02R                  
HULETT         LGT RAIN  45  43  93 NE10      30.04                   
NEWCASTLE      LGT RAIN  48  46  93 NW6       29.95                   

$$
WYZ014>020-022>026-101>103-212100-
CENTRAL WYOMING
  
CITY           SKY/WX    TMP DP  RH WIND       PRES   REMARKS
BIG PINEY      LGT RAIN  43  38  82 N8        29.96R                  
PINEDALE       CLOUDY    45  37  76 E6        29.97                   
DUBOIS         CLOUDY    37  36  93 E8        30.00  WCI  31          
LANDER         LGT RAIN  41  40  96 N9        30.02R FOG              
RIVERTON       CLOUDY    42  38  85 N23       30.00R                  
CASPER         CLOUDY    45  40  82 N24G32    29.99R                  
DOUGLAS        CLOUDY    48  42  80 N17       29.97S                  

$$
WYZ021-027>030-104>119-212100-
SOUTHERN WYOMING
  
CITY           SKY/WX    TMP DP  RH WIND       PRES   REMARKS
EVANSTON       PTSUNNY   52  34  50 MISG      29.92R                  
KEMMERER       FAIR      52  36  54 E7        29.95                   
ROCK SPRINGS   FAIR      50  36  58 SW6       29.92S                  
DIXON          FAIR      55  38  52 S16G23    29.97S                  
RAWLINS        LGT RAIN  51  41  68 N7        29.93S                  
SARATOGA       FAIR      55  30  38 W15       29.92S                  
LARAMIE        TSTM      47  41  80 E12       29.92R                  
CHEYENNE       PTSUNNY   53  43  68 NE15G25   29.91R                  
TORRINGTON     LGT RAIN  50  50 100 N8        29.89S                  
PINE BLUFFS    CLOUDY    52  41  66 N22G30    29.88R                  

$$